Houghton, MI

11:36 AM EDT on May 29, 2017 (GMT -0400)
Houghton County Memorial

Weather History for KCMX - December, 2011

Change the Weather History Date:

Thursday, December 22, 2011

  Actual Average Record
Temperature  
Mean Temperature 25 °F -  
Max Temperature 32 °F 24 °F 40 °F (1957)
Min Temperature 18 °F 13 °F -4 °F (1983)
Degree Days  
Heating Degree Days 40    
Moisture  
Dew Point 16 °F    
Average Humidity 76    
Maximum Humidity 93    
Minimum Humidity 62    
Precipitation  
Precipitation 0.01 in - - ()
Sea Level Pressure  
Sea Level Pressure 30.15 in    
Wind  
Wind Speed 11 mph (NNW)    
Max Wind Speed 21 mph    
Max Gust Speed 28 mph    
Visibility 5 miles    
Events Fog , Snow    
Averages and records for this station are not official NWS values.
T = Trace of Precipitation, MM = Missing Value Source: NWS Daily Summary

Daily Weather History Graph

Daily Weather History Graph

Search for Another Location

Airport or City:

Trip Planner

Search our weather history database for the weather conditions in past years. The results will help you decide how hot, cold, wet, or windy it might be!

Date:

Astronomy

Dec. 22, 2011 Rise Set
Actual Time 8:37 AM EST 5:07 PM EST
Civil Twilight 8:02 AM EST 5:42 PM EST
Nautical Twilight 7:23 AM EST 6:21 PM EST
Astronomical Twilight 6:46 AM EST 6:59 PM EST
Moon 6:20 AM EST (12/22) 3:17 PM EST (12/22)
Length of Visible Light 9h 40m
Length of Day
8h 29m
Waning Crescent, 6% of the Moon is Illuminated
Dec 22
Waning Crescent
Dec 24
New
Jan 1
First Quarter
Jan 9
Full
Jan 16
Last Quarter

Hourly Weather History & Observations

Time (EST) Temp. Windchill Dew Point Humidity Pressure Visibility Wind Dir Wind Speed Gust Speed Precip Events Conditions
12:10 AM 32.0 °F 23.0 °F 24.8 °F 75% 29.85 in 10.0 mi NNW 11.5 mph - N/A   Overcast
12:21 AM 32.0 °F 23.0 °F 24.8 °F 75% 29.86 in 10.0 mi NNW 11.5 mph - N/A   Overcast
12:53 AM 32.0 °F 22.5 °F 24.1 °F 73% 29.91 in 10.0 mi NNW 12.7 mph - N/A   Overcast
1:53 AM 28.9 °F 16.1 °F 25.0 °F 85% 29.96 in 9.0 mi North 19.6 mph 26.5 mph N/A   Overcast
2:53 AM 27.0 °F 16.1 °F 21.9 °F 81% 30.00 in 10.0 mi North 12.7 mph 26.5 mph N/A   Overcast
3:20 AM 26.6 °F 16.2 °F 19.4 °F 74% 29.97 in 10.0 mi North 11.5 mph 25.3 mph N/A   Overcast
3:53 AM 26.1 °F 15.0 °F 19.0 °F 75% 30.04 in 10.0 mi North 12.7 mph 20.7 mph N/A   Overcast
4:53 AM 25.0 °F 13.1 °F 19.0 °F 78% 30.06 in 10.0 mi North 13.8 mph - N/A   Overcast
5:44 AM 24.8 °F 14.6 °F 17.6 °F 74% 30.04 in 1.8 mi North 10.4 mph - 0.00 in Snow Light Snow
5:53 AM 24.1 °F 14.4 °F 18.0 °F 77% 30.09 in 2.0 mi NNW 9.2 mph 19.6 mph 0.00 in Snow Light Snow
6:20 AM 24.8 °F 13.4 °F 17.6 °F 74% 30.05 in 3.0 mi North 12.7 mph - 0.00 in Snow Light Snow
6:53 AM 24.1 °F 13.1 °F 17.1 °F 75% 30.12 in 8.0 mi NNW 11.5 mph - 0.00 in Snow Light Snow
7:26 AM 24.8 °F 12.9 °F 15.8 °F 69% 30.08 in 7.0 mi North 13.8 mph - 0.00 in Snow Light Snow
7:34 AM 24.8 °F 15.3 °F 15.8 °F 69% 30.08 in 9.0 mi NNW 9.2 mph 19.6 mph 0.00 in   Overcast
7:53 AM 24.1 °F 13.7 °F 15.1 °F 69% 30.14 in 10.0 mi NNW 10.4 mph - 0.00 in   Overcast
8:53 AM 24.8 °F 16.9 °F 14.0 °F 64% 30.12 in 10.0 mi NNW 6.9 mph - N/A   Overcast
9:10 AM 24.8 °F 16.9 °F 14.0 °F 64% 30.12 in 10.0 mi NNW 6.9 mph - N/A   Overcast
9:24 AM 24.8 °F 15.3 °F 14.0 °F 64% 30.12 in 10.0 mi North 9.2 mph - N/A   Overcast
9:53 AM 24.1 °F 16.0 °F 12.9 °F 62% 30.18 in 10.0 mi NNW 6.9 mph - N/A   Overcast
10:53 AM 24.1 °F 19.7 °F 15.1 °F 69% 30.18 in 6.0 mi North 3.5 mph - 0.00 in Snow Light Snow
11:31 AM 24.8 °F 14.0 °F 15.8 °F 69% 30.14 in 3.0 mi North 11.5 mph 18.4 mph 0.00 in Snow Light Snow
11:53 AM 24.1 °F 16.0 °F 16.0 °F 71% 30.20 in 10.0 mi North 6.9 mph - 0.00 in Snow Light Snow
12:21 PM 24.8 °F 15.3 °F 17.6 °F 74% 30.15 in 2.5 mi NNW 9.2 mph - 0.00 in Snow Light Snow
12:30 PM 24.8 °F 14.6 °F 17.6 °F 74% 30.16 in 3.0 mi North 10.4 mph - 0.00 in Snow Light Snow
12:34 PM 24.8 °F 14.6 °F 17.6 °F 74% 30.16 in 2.5 mi North 10.4 mph - 0.00 in Snow Light Snow
12:43 PM 23.0 °F 15.8 °F 17.6 °F 80% 30.16 in 1.2 mi North 5.8 mph - 0.00 in Snow Light Snow
12:53 PM 23.0 °F 13.9 °F 18.0 °F 81% 30.21 in 1.8 mi North 8.1 mph - 0.00 in Snow Light Snow
1:01 PM 23.0 °F 11.7 °F 17.6 °F 80% 30.16 in 1.8 mi North 11.5 mph - 0.00 in Snow Light Snow
1:31 PM 21.2 °F 8.9 °F 17.6 °F 86% 30.16 in 2.5 mi NNW 12.7 mph - 0.01 in Snow Light Snow
1:53 PM 21.9 °F 11.0 °F 17.1 °F 82% 30.22 in 2.5 mi North 10.4 mph - 0.01 in Snow Light Snow
2:08 PM 21.2 °F 8.9 °F 17.6 °F 86% 30.17 in 1.0 mi NNW 12.7 mph - 0.00 in Snow Light Snow
2:31 PM 21.2 °F 8.9 °F 17.6 °F 86% 30.18 in 0.5 mi NW 12.7 mph - 0.01 in Fog , Snow Snow
2:38 PM 21.2 °F 8.3 °F 17.6 °F 86% 30.18 in 0.2 mi NW 13.8 mph - 0.01 in Fog , Snow Snow
2:45 PM 21.2 °F 8.9 °F 17.6 °F 86% 30.18 in 0.8 mi NW 12.7 mph - 0.01 in Snow Light Snow
2:53 PM 21.2 °F 9.5 °F 17.6 °F 86% 30.18 in 0.8 mi NW 11.5 mph - N/A Snow Light Snow
3:08 PM 19.4 °F 7.2 °F 17.6 °F 93% 30.17 in 0.8 mi NNW 11.5 mph - 0.00 in Snow Light Snow
3:17 PM 19.4 °F 7.2 °F 15.8 °F 86% 30.17 in 1.8 mi NNW 11.5 mph - 0.00 in Snow Light Snow
3:21 PM 19.4 °F 6.6 °F 15.8 °F 86% 30.18 in 3.0 mi NW 12.7 mph - 0.00 in Snow Light Snow
3:31 PM 21.2 °F 9.5 °F 15.8 °F 80% 30.18 in 3.0 mi NW 11.5 mph - 0.00 in Snow Light Snow
3:34 PM 21.2 °F 8.9 °F 15.8 °F 80% 30.18 in 1.8 mi NNW 12.7 mph - 0.00 in Snow Light Snow
3:51 PM 19.4 °F 7.2 °F 15.8 °F 86% 30.19 in 0.8 mi NNW 11.5 mph - 0.00 in Snow Light Snow
3:53 PM 19.9 °F 8.6 °F 16.0 °F 85% 30.25 in 0.8 mi NW 10.4 mph - 0.00 in Snow Light Snow
4:07 PM 19.4 °F 8.6 °F 15.8 °F 86% 30.19 in 1.0 mi NNW 9.2 mph - 0.00 in Snow Light Snow
4:16 PM 19.4 °F 8.6 °F 15.8 °F 86% 30.19 in 0.8 mi NW 9.2 mph - 0.00 in Snow Light Snow
4:33 PM 19.4 °F 9.5 °F 15.8 °F 86% 30.19 in 2.0 mi NW 8.1 mph - 0.00 in Snow Light Snow
4:46 PM 19.4 °F 9.5 °F 14.0 °F 80% 30.19 in 5.0 mi NNW 8.1 mph - 0.00 in Snow Light Snow
4:53 PM 19.9 °F 8.6 °F 14.0 °F 78% 30.26 in 4.0 mi NW 10.4 mph - 0.00 in Snow Light Snow
5:53 PM 19.0 °F 6.1 °F 12.0 °F 74% 30.26 in 9.0 mi NW 12.7 mph - 0.00 in   Overcast
6:53 PM 19.9 °F 11.1 °F 12.9 °F 74% 30.26 in 8.0 mi NW 6.9 mph - 0.00 in Snow Light Snow
7:21 PM 19.4 °F 8.6 °F 14.0 °F 80% 30.20 in 1.8 mi NW 9.2 mph - 0.00 in Snow Light Snow
7:28 PM 19.4 °F 8.6 °F 12.2 °F 74% 30.20 in 3.0 mi NW 9.2 mph - 0.00 in Snow Light Snow
7:53 PM 19.9 °F 9.3 °F 12.0 °F 71% 30.26 in 10.0 mi WNW 9.2 mph - 0.00 in   Overcast
8:53 PM 19.9 °F 3.9 °F 9.0 °F 62% 30.27 in 9.0 mi WNW 20.7 mph 27.6 mph 0.00 in   Overcast
9:53 PM 18.0 °F 3.6 °F 7.0 °F 62% 30.27 in 10.0 mi NW 15.0 mph - N/A   Partly Cloudy
10:53 PM 19.0 °F 10.0 °F 8.1 °F 62% 30.27 in 10.0 mi NNW 6.9 mph - N/A   Overcast
11:53 PM 19.0 °F 11.1 °F 9.0 °F 65% 30.26 in 10.0 mi NNW 5.8 mph - N/A   Overcast